BEIDOU IGSO-7 (C16)

Last updated on Aug. 15, 2020, 5:35 a.m. UTC

1 43539U 18057A   20227.64525917 -.00000111  00000-0  00000-0 0  9991
2 43539  55.0490 181.7207 0029717 215.0019 268.9923  1.00249665  7772
UTC
Height (km)
Latitude
Longitude
Inclination
Orbital Period
UTC large
Height (km)
Speed (km/s)
/
Latitude / Longitude
Inclination (degrees)
Orbital Period (minutes)
Azimuth
Elevation
Range (km)
Doppler Factor
iOS Compass Heading
iOS Angle

Next 30 passes for location: Hong Kong

Rise time Rise Azimuth (degrees) Set time Set Azimuth (degrees) Duration Max altitude (degrees)

No matching passes for this satellites